EDW16K EGHQ-LSZH

Flight info

Callsign EDW16K
Flight time 1h 29m
Altitude 35000
Route DAWLY L620 GIBSO L620 SAM M140 DVR UL9 KONAN DCT KOK M150 DIK N852 SUTAL DCT GTQ DCT BAMEV DCT BLM
Aircraft A320/M-SDE3FGHIRWY/LB1

Departure

Time 2026-04-26 09:48
Airport Cornwall Airport Newquay (EGHQ)

Arrival

Time 2026-04-26 11:17
Airport Zürich Airport (LSZH)
Time Latitude Longitude Altitude Speed Heading
2026-04-26 09:12 50.44622 -5.00304 331 ft 0 kts 72°
2026-04-26 09:42 50.44617 -5.00330 328 ft 4 kts 95°
2026-04-26 09:43 50.44617 -5.00365 329 ft 4 kts 43°
2026-04-26 09:43 50.44599 -5.00368 327 ft 4 kts 331°
2026-04-26 09:43 50.44585 -5.00354 328 ft 4 kts 288°
2026-04-26 09:43 50.44579 -5.00328 328 ft 1 kts 300°
2026-04-26 09:45 50.44594 -5.00368 329 ft 13 kts 300°
2026-04-26 09:45 50.44642 -5.00494 329 ft 13 kts 300°
2026-04-26 09:45 50.44687 -5.00615 327 ft 13 kts 301°
2026-04-26 09:46 50.44732 -5.00732 327 ft 13 kts 301°
2026-04-26 09:46 50.44785 -5.00872 331 ft 17 kts 301°
2026-04-26 09:46 50.44805 -5.01043 332 ft 15 kts 258°
2026-04-26 09:46 50.44737 -5.01143 329 ft 14 kts 198°
2026-04-26 09:47 50.44657 -5.01076 332 ft 18 kts 115°
2026-04-26 09:47 50.44478 -5.00596 331 ft 87 kts 120°
2026-04-26 09:47 50.44057 -4.99477 334 ft 145 kts 120°
2026-04-26 09:47 50.43525 -4.98062 806 ft 153 kts 121°
2026-04-26 09:48 50.42983 -4.96625 1536 ft 154 kts 122°
2026-04-26 09:48 50.42426 -4.95084 2063 ft 174 kts 114°
2026-04-26 09:48 50.42344 -4.93082 2364 ft 201 kts 85°
2026-04-26 09:48 50.42592 -4.90778 2682 ft 227 kts 82°
2026-04-26 09:49 50.42914 -4.88218 3047 ft 251 kts 81°
2026-04-26 09:49 50.43261 -4.85469 3783 ft 260 kts 81°
2026-04-26 09:49 50.43606 -4.82646 4602 ft 266 kts 82°
2026-04-26 09:49 50.43939 -4.79781 5456 ft 270 kts 82°
2026-04-26 09:50 50.44267 -4.76853 6293 ft 274 kts 82°
2026-04-26 09:50 50.44591 -4.73885 7105 ft 278 kts 82°
2026-04-26 09:50 50.44917 -4.70871 7876 ft 282 kts 82°
2026-04-26 09:50 50.45241 -4.67811 8661 ft 286 kts 82°
2026-04-26 09:51 50.45568 -4.64711 9463 ft 290 kts 82°
2026-04-26 09:51 50.45900 -4.61562 10217 ft 295 kts 83°
2026-04-26 09:51 50.46240 -4.58317 10676 ft 311 kts 83°
2026-04-26 09:51 50.46599 -4.54838 10889 ft 335 kts 83°
2026-04-26 09:52 50.46984 -4.51107 11052 ft 358 kts 83°
2026-04-26 09:52 50.47808 -4.43192 12025 ft 376 kts 83°
2026-04-26 09:52 50.48234 -4.39122 12684 ft 380 kts 83°
2026-04-26 09:53 50.48662 -4.35006 13342 ft 384 kts 83°
2026-04-26 09:53 50.49087 -4.30858 13991 ft 387 kts 83°
2026-04-26 09:53 50.49515 -4.26647 14576 ft 391 kts 83°
2026-04-26 09:53 50.49947 -4.22403 15126 ft 396 kts 83°
2026-04-26 09:54 50.50383 -4.18111 15672 ft 400 kts 83°
2026-04-26 09:54 50.50825 -4.13759 16159 ft 405 kts 82°
2026-04-26 09:54 50.51271 -4.09375 16665 ft 410 kts 82°
2026-04-26 09:54 50.51723 -4.04924 17205 ft 414 kts 82°
2026-04-26 09:55 50.52176 -4.00438 17740 ft 419 kts 82°
2026-04-26 09:55 50.52633 -3.95868 18275 ft 423 kts 82°
2026-04-26 09:55 50.53085 -3.91295 18760 ft 427 kts 82°
2026-04-26 09:55 50.53541 -3.86640 19226 ft 430 kts 82°
2026-04-26 09:56 50.53989 -3.82051 19688 ft 433 kts 82°
2026-04-26 09:56 50.54449 -3.77345 20150 ft 436 kts 82°
2026-04-26 09:56 50.54909 -3.72637 20586 ft 439 kts 82°
2026-04-26 09:56 50.55377 -3.67799 21002 ft 442 kts 82°
2026-04-26 09:57 50.55833 -3.63062 21404 ft 445 kts 82°
2026-04-26 09:57 50.56302 -3.58180 21828 ft 448 kts 82°
2026-04-26 09:57 50.56761 -3.53398 22238 ft 450 kts 82°
2026-04-26 09:57 50.57231 -3.48511 22642 ft 453 kts 82°
2026-04-26 09:58 50.57941 -3.43678 23020 ft 456 kts 73°
2026-04-26 09:58 50.58857 -3.38885 23396 ft 458 kts 73°
2026-04-26 09:58 50.59778 -3.34050 23774 ft 461 kts 74°
2026-04-26 09:58 50.60697 -3.29207 24101 ft 463 kts 74°
2026-04-26 09:59 50.61611 -3.24354 24409 ft 465 kts 74°
2026-04-26 09:59 50.62529 -3.19460 24741 ft 466 kts 74°
2026-04-26 09:59 50.63447 -3.14554 25037 ft 468 kts 74°
2026-04-26 09:59 50.64367 -3.09627 25330 ft 469 kts 74°
2026-04-26 10:00 50.65290 -3.04687 25607 ft 471 kts 74°
2026-04-26 10:00 50.66214 -2.99716 25874 ft 473 kts 74°
2026-04-26 10:00 50.67136 -2.94727 26144 ft 475 kts 74°
2026-04-26 10:00 50.68060 -2.89713 26407 ft 477 kts 74°
2026-04-26 10:01 50.68989 -2.84679 26663 ft 479 kts 74°
2026-04-26 10:01 50.69915 -2.79633 26907 ft 480 kts 74°
2026-04-26 10:01 50.70843 -2.74564 27182 ft 481 kts 74°
2026-04-26 10:01 50.71773 -2.69490 27428 ft 482 kts 74°
2026-04-26 10:02 50.72705 -2.64399 27657 ft 484 kts 74°
2026-04-26 10:02 50.73636 -2.59289 27875 ft 486 kts 74°
2026-04-26 10:02 50.74554 -2.54229 28113 ft 486 kts 75°
2026-04-26 10:02 50.75496 -2.49012 28430 ft 486 kts 75°
2026-04-26 10:03 50.76420 -2.43885 28726 ft 485 kts 75°
2026-04-26 10:03 50.77343 -2.38764 29028 ft 485 kts 75°
2026-04-26 10:03 50.78265 -2.33637 29323 ft 485 kts 74°
2026-04-26 10:03 50.79180 -2.28518 29630 ft 484 kts 74°
2026-04-26 10:04 50.80078 -2.23473 29935 ft 484 kts 74°
2026-04-26 10:04 50.80990 -2.18350 30244 ft 484 kts 74°
2026-04-26 10:04 50.81901 -2.13228 30526 ft 483 kts 74°
2026-04-26 10:04 50.82813 -2.08094 30790 ft 483 kts 74°
2026-04-26 10:05 50.83711 -2.02991 31038 ft 483 kts 74°
2026-04-26 10:05 50.84605 -1.97883 31295 ft 483 kts 74°
2026-04-26 10:05 50.85503 -1.92748 31539 ft 483 kts 74°
2026-04-26 10:05 50.86397 -1.87642 31808 ft 482 kts 74°
2026-04-26 10:06 50.87292 -1.82519 32053 ft 482 kts 74°
2026-04-26 10:06 50.88180 -1.77404 32324 ft 481 kts 74°
2026-04-26 10:06 50.89068 -1.72293 32601 ft 481 kts 74°
2026-04-26 10:06 50.89953 -1.67202 32868 ft 480 kts 74°
2026-04-26 10:07 50.90836 -1.62094 33131 ft 480 kts 74°
2026-04-26 10:07 50.91711 -1.56989 33389 ft 480 kts 74°
2026-04-26 10:07 50.92569 -1.51955 33642 ft 479 kts 74°
2026-04-26 10:07 50.93446 -1.46800 33897 ft 479 kts 74°
2026-04-26 10:08 50.94299 -1.41766 34161 ft 478 kts 74°
2026-04-26 10:08 50.95162 -1.36670 34403 ft 478 kts 75°
2026-04-26 10:08 50.95807 -1.31479 34625 ft 478 kts 81°
2026-04-26 10:08 50.96270 -1.26272 34857 ft 478 kts 81°
2026-04-26 10:09 50.96727 -1.21063 35080 ft 477 kts 81°
2026-04-26 10:09 50.97179 -1.15849 35259 ft 477 kts 82°
2026-04-26 10:09 50.98080 -1.05352 35304 ft 480 kts 82°
2026-04-26 10:10 50.98978 -0.94839 35320 ft 480 kts 82°
2026-04-26 10:10 50.99867 -0.84344 35318 ft 480 kts 81°
2026-04-26 10:11 51.00746 -0.73867 35317 ft 480 kts 81°
2026-04-26 10:11 51.01615 -0.63342 35313 ft 479 kts 82°
2026-04-26 10:12 51.02468 -0.52903 35316 ft 479 kts 82°
2026-04-26 10:12 51.03318 -0.42401 35317 ft 479 kts 82°
2026-04-26 10:13 51.04166 -0.31897 35318 ft 479 kts 82°
2026-04-26 10:13 51.05000 -0.21394 35321 ft 479 kts 82°
2026-04-26 10:14 51.05822 -0.10881 35320 ft 479 kts 82°
2026-04-26 10:14 51.06635 -0.00353 35326 ft 479 kts 82°
2026-04-26 10:15 51.07434 0.10161 35290 ft 479 kts 81°
2026-04-26 10:15 51.08228 0.20685 35272 ft 478 kts 82°
2026-04-26 10:16 51.09009 0.31193 35258 ft 478 kts 82°
2026-04-26 10:16 51.09777 0.41629 35249 ft 478 kts 82°
2026-04-26 10:17 51.10541 0.52134 35255 ft 478 kts 82°
2026-04-26 10:17 51.11292 0.62649 35268 ft 478 kts 82°
2026-04-26 10:18 51.12037 0.73154 35283 ft 478 kts 82°
2026-04-26 10:18 51.12776 0.83658 35305 ft 478 kts 82°
2026-04-26 10:19 51.13501 0.94173 35348 ft 478 kts 82°
2026-04-26 10:19 51.14212 1.04683 35362 ft 477 kts 82°
2026-04-26 10:20 51.14791 1.13411 35357 ft 477 kts 82°
2026-04-26 10:20 51.15596 1.25605 35356 ft 476 kts 82°
2026-04-26 10:21 51.16175 1.36130 35350 ft 478 kts 88°
2026-04-26 10:21 51.15751 1.46706 35358 ft 479 kts 92°
2026-04-26 10:22 51.15237 1.57290 35353 ft 479 kts 92°
2026-04-26 10:22 51.14723 1.67865 35350 ft 479 kts 92°
2026-04-26 10:23 51.14288 1.76652 35348 ft 479 kts 92°
2026-04-26 10:23 51.13748 1.87212 35348 ft 479 kts 93°
2026-04-26 10:24 51.13190 1.97770 35345 ft 478 kts 92°
2026-04-26 10:24 51.12636 2.08299 35347 ft 478 kts 92°
2026-04-26 10:25 51.12074 2.18839 35346 ft 477 kts 92°
2026-04-26 10:25 51.11502 2.29378 35349 ft 477 kts 92°
2026-04-26 10:26 51.10922 2.39890 35358 ft 477 kts 93°
2026-04-26 10:26 51.10328 2.50411 35359 ft 477 kts 93°
2026-04-26 10:27 51.09647 2.60894 35353 ft 477 kts 98°
2026-04-26 10:27 51.07563 2.70921 35354 ft 480 kts 116°
2026-04-26 10:28 51.04442 2.80312 35342 ft 481 kts 117°
2026-04-26 10:28 51.01305 2.89696 35362 ft 480 kts 117°
2026-04-26 10:29 50.98181 2.99057 35359 ft 480 kts 117°
2026-04-26 10:29 50.95058 3.08398 35349 ft 480 kts 117°
2026-04-26 10:30 50.91906 3.17733 35337 ft 479 kts 117°
2026-04-26 10:30 50.88753 3.27041 35339 ft 480 kts 117°
2026-04-26 10:31 50.85611 3.36284 35341 ft 480 kts 118°
2026-04-26 10:31 50.82440 3.45570 35327 ft 479 kts 118°
2026-04-26 10:32 50.79262 3.54850 35331 ft 479 kts 118°
2026-04-26 10:32 50.76087 3.64106 35329 ft 479 kts 118°
2026-04-26 10:33 50.72898 3.73358 35327 ft 479 kts 118°
2026-04-26 10:33 50.69701 3.82585 35331 ft 478 kts 118°
2026-04-26 10:34 50.66512 3.91776 35331 ft 478 kts 118°
2026-04-26 10:34 50.63312 4.00956 35325 ft 477 kts 118°
2026-04-26 10:35 50.60132 4.10058 35327 ft 477 kts 118°
2026-04-26 10:35 50.56923 4.19211 35318 ft 477 kts 118°
2026-04-26 10:36 50.53699 4.28346 35322 ft 478 kts 118°
2026-04-26 10:36 50.50477 4.37457 35321 ft 478 kts 118°
2026-04-26 10:37 50.47243 4.46590 35324 ft 478 kts 118°
2026-04-26 10:37 50.43998 4.55687 35322 ft 477 kts 119°
2026-04-26 10:38 50.40754 4.64739 35329 ft 477 kts 119°
2026-04-26 10:38 50.37499 4.73818 35316 ft 476 kts 119°
2026-04-26 10:39 50.34255 4.82837 35318 ft 476 kts 119°
2026-04-26 10:39 50.31021 4.91799 35299 ft 476 kts 119°
2026-04-26 10:40 50.27759 5.00811 35290 ft 476 kts 119°
2026-04-26 10:40 50.24481 5.09812 35306 ft 476 kts 120°
2026-04-26 10:41 50.21204 5.18775 35295 ft 475 kts 120°
2026-04-26 10:41 50.17923 5.27740 35302 ft 475 kts 120°
2026-04-26 10:42 50.14638 5.36677 35293 ft 475 kts 120°
2026-04-26 10:42 50.11344 5.45605 35293 ft 475 kts 120°
2026-04-26 10:43 50.08049 5.54509 35298 ft 474 kts 120°
2026-04-26 10:43 50.04758 5.63376 35286 ft 472 kts 120°
2026-04-26 10:44 50.01503 5.72143 35280 ft 472 kts 120°
2026-04-26 10:44 49.98204 5.80984 35279 ft 472 kts 120°
2026-04-26 10:45 49.94899 5.89768 35275 ft 472 kts 120°
2026-04-26 10:45 49.91585 5.98553 35282 ft 472 kts 121°
2026-04-26 10:46 49.88142 6.07202 35286 ft 471 kts 129°
2026-04-26 10:46 49.83438 6.14147 35285 ft 467 kts 147°
2026-04-26 10:47 49.77692 6.18708 35274 ft 464 kts 158°
2026-04-26 10:47 49.71774 6.22722 35275 ft 464 kts 158°
2026-04-26 10:48 49.65859 6.26718 35274 ft 464 kts 158°
2026-04-26 10:48 49.59931 6.30677 35276 ft 464 kts 159°
2026-04-26 10:49 49.53975 6.34508 35273 ft 463 kts 159°
2026-04-26 10:49 49.48081 6.38254 35285 ft 462 kts 159°
2026-04-26 10:50 49.43148 6.41459 35278 ft 463 kts 158°
2026-04-26 10:50 49.36272 6.46179 35272 ft 463 kts 158°
2026-04-26 10:51 49.27459 6.52248 35267 ft 463 kts 158°
2026-04-26 10:52 49.21568 6.56228 35268 ft 463 kts 158°
2026-04-26 10:52 49.15673 6.60188 35265 ft 463 kts 158°
2026-04-26 10:53 49.09783 6.64144 35262 ft 463 kts 158°
2026-04-26 10:53 49.03899 6.68091 35274 ft 462 kts 158°
2026-04-26 10:54 48.95087 6.73883 35275 ft 461 kts 160°
2026-04-26 10:54 48.89114 6.77403 35274 ft 460 kts 161°
2026-04-26 10:55 48.83108 6.80844 35240 ft 460 kts 161°
2026-04-26 10:55 48.78143 6.83732 35242 ft 460 kts 161°
2026-04-26 10:56 48.71159 6.87864 35244 ft 460 kts 161°
2026-04-26 10:56 48.65192 6.91393 35242 ft 460 kts 161°
2026-04-26 10:57 48.59220 6.94897 35244 ft 460 kts 161°
2026-04-26 10:57 48.53288 6.98368 35251 ft 460 kts 161°
2026-04-26 10:58 48.47318 7.01845 35247 ft 460 kts 161°
2026-04-26 10:58 48.41360 7.05304 35234 ft 459 kts 161°
2026-04-26 10:59 48.35394 7.08769 35244 ft 459 kts 161°
2026-04-26 10:59 48.29424 7.12220 35244 ft 459 kts 161°
2026-04-26 11:00 48.23460 7.15659 35242 ft 459 kts 161°
2026-04-26 11:00 48.17489 7.19102 35235 ft 459 kts 161°
2026-04-26 11:01 48.11534 7.22530 35245 ft 458 kts 161°
2026-04-26 11:01 48.05582 7.25944 35263 ft 457 kts 161°
2026-04-26 11:02 47.99656 7.29333 34924 ft 456 kts 161°
2026-04-26 11:02 47.96673 7.31030 33768 ft 463 kts 162°
2026-04-26 11:02 47.93648 7.32748 32610 ft 467 kts 162°
2026-04-26 11:03 47.90638 7.34460 31521 ft 470 kts 162°
2026-04-26 11:03 47.87541 7.36219 30408 ft 472 kts 162°
2026-04-26 11:03 47.84512 7.37937 29129 ft 474 kts 162°
2026-04-26 11:03 47.81421 7.39691 27760 ft 476 kts 161°
2026-04-26 11:04 47.78273 7.41478 26329 ft 480 kts 161°
2026-04-26 11:04 47.75177 7.43229 24980 ft 484 kts 161°
2026-04-26 11:04 47.72050 7.44995 23899 ft 481 kts 161°
2026-04-26 11:04 47.68971 7.46906 22797 ft 479 kts 154°
2026-04-26 11:05 47.66185 7.49565 21866 ft 477 kts 143°
2026-04-26 11:05 47.63748 7.52834 21426 ft 465 kts 135°
2026-04-26 11:05 47.61819 7.56569 21040 ft 446 kts 121°
2026-04-26 11:05 47.60453 7.60645 20027 ft 435 kts 114°
2026-04-26 11:06 47.59373 7.64800 18980 ft 428 kts 109°
2026-04-26 11:06 47.58763 7.67565 18263 ft 424 kts 107°
2026-04-26 11:06 47.57649 7.73116 16756 ft 415 kts 106°
2026-04-26 11:06 47.56833 7.77175 15749 ft 408 kts 107°
2026-04-26 11:07 47.55980 7.81156 15188 ft 406 kts 108°
2026-04-26 11:07 47.55078 7.85125 14654 ft 407 kts 109°
2026-04-26 11:07 47.54146 7.89076 14115 ft 403 kts 109°
2026-04-26 11:07 47.53212 7.92965 13491 ft 401 kts 109°
2026-04-26 11:08 47.52294 7.96761 13165 ft 390 kts 109°
2026-04-26 11:08 47.51412 8.00403 13019 ft 361 kts 109°
2026-04-26 11:08 47.50597 8.03777 12789 ft 338 kts 109°
2026-04-26 11:08 47.49983 8.07005 12635 ft 316 kts 92°
2026-04-26 11:09 47.50306 8.10089 12228 ft 301 kts 63°
2026-04-26 11:09 47.51530 8.12527 11662 ft 294 kts 41°
2026-04-26 11:09 47.53103 8.14438 11019 ft 292 kts 35°
2026-04-26 11:09 47.54737 8.16196 10428 ft 289 kts 36°
2026-04-26 11:10 47.56296 8.17955 10219 ft 272 kts 38°
2026-04-26 11:10 47.57701 8.19683 9882 ft 261 kts 40°
2026-04-26 11:10 47.59039 8.21462 9406 ft 256 kts 43°
2026-04-26 11:10 47.60322 8.23263 8887 ft 254 kts 44°
2026-04-26 11:11 47.61551 8.25111 8378 ft 250 kts 52°
2026-04-26 11:11 47.62413 8.27311 7855 ft 246 kts 70°
2026-04-26 11:11 47.62769 8.29749 7269 ft 240 kts 87°
2026-04-26 11:11 47.62723 8.31358 6797 ft 240 kts 99°
2026-04-26 11:12 47.62590 8.32293 6510 ft 238 kts 106°
2026-04-26 11:12 47.61909 8.34513 5780 ft 236 kts 122°
2026-04-26 11:12 47.60832 8.36297 5336 ft 225 kts 135°
2026-04-26 11:12 47.59719 8.37825 4983 ft 212 kts 135°
2026-04-26 11:13 47.59021 8.38784 4829 ft 201 kts 135°
2026-04-26 11:13 47.58007 8.40175 4298 ft 199 kts 136°
2026-04-26 11:13 47.56657 8.42032 3711 ft 194 kts 135°
2026-04-26 11:13 47.55999 8.42934 3548 ft 190 kts 134°
2026-04-26 11:14 47.55080 8.44194 3299 ft 179 kts 134°
2026-04-26 11:14 47.54190 8.45413 3073 ft 169 kts 133°
2026-04-26 11:14 47.53351 8.46564 2843 ft 159 kts 134°
2026-04-26 11:14 47.52571 8.47632 2646 ft 151 kts 134°
2026-04-26 11:15 47.51807 8.48679 2453 ft 149 kts 132°
2026-04-26 11:15 47.51054 8.49709 2247 ft 147 kts 131°
2026-04-26 11:15 47.50306 8.50733 2026 ft 147 kts 132°
2026-04-26 11:15 47.49560 8.51767 1828 ft 146 kts 131°
2026-04-26 11:16 47.48842 8.52750 1624 ft 145 kts 131°
2026-04-26 11:16 47.48087 8.53774 1418 ft 148 kts 133°
2026-04-26 11:16 47.47422 8.54683 1401 ft 106 kts 137°
2026-04-26 11:16 47.47007 8.55250 1396 ft 57 kts 137°
2026-04-26 11:17 47.46796 8.55538 1402 ft 33 kts 140°
2026-04-26 11:17 47.46634 8.55663 1398 ft 21 kts 162°
2026-04-26 11:17 47.46502 8.55711 1407 ft 16 kts 167°
2026-04-26 11:17 47.46393 8.55755 1396 ft 17 kts 155°
2026-04-26 11:18 47.46303 8.55863 1401 ft 17 kts 139°
2026-04-26 11:18 47.46232 8.55840 1399 ft 12 kts 256°
2026-04-26 11:18 47.46239 8.55726 1402 ft 10 kts 276°
2026-04-26 11:18 47.46246 8.55622 1397 ft 10 kts 275°
2026-04-26 11:19 47.46252 8.55525 1406 ft 9 kts 275°
2026-04-26 11:19 47.46253 8.55506 1405 ft 0 kts 275°
2026-04-26 11:19 47.46252 8.55500 1405 ft 0 kts 256°
2026-04-26 11:19 47.46245 8.55500 1402 ft 3 kts 185°
2026-04-26 11:20 47.46201 8.55496 1400 ft 7 kts 185°
2026-04-26 11:20 47.46173 8.55492 1400 ft 5 kts 187°
2026-04-26 11:20 47.46171 8.55491 1400 ft 0 kts 187°
2026-04-26 11:20 47.46173 8.55492 1400 ft 0 kts 187°